Home > Weather > Campo Grande > Past weeks

Flag for Brazil Weather for the Past 2 Weeks in Campo Grande, Mato Grosso Do Sul, Brazil

Now
64 °F

Sunny.


Feels Like: 64 °F
Forecast: 59 / 81 °F
Wind: 16 mph from East

Location: Campo Grande Aeroporto

Current Time: May 2, 2016 at 7:47:39 AM

Latest Report: May 2, 2016 at 7:00 AM


Visibility: 10 mi

Pressure: 30.09 "Hg (28.32 "Hg at 516m altitude)

Humidity: 56%

Dew Point: 48 °F

Location of Campo GrandeLocation

Historic Weather in Campo Grande — Graph

°F

Campo Grande Temperature Yesterday

Maximum temperature yesterday: 77 °F (at 2:00 PM)
Minimum temperature yesterday: 50 °F (at 5:00 AM)
Average temperature yesterday: 63 °F

High & Low Weather Summary for the Past Weeks

 TemperatureHumidityPressure
High91 °F (Apr 17, 1:00 PM)100% (Apr 26, 3:00 AM)30.21 "Hg (Apr 26, 3:00 AM)
Low43 °F (Apr 28, 5:00 AM)28% (May 1, 2:00 PM)29.71 "Hg (Apr 25, 2:00 PM)
Average71 °F64%30.00 "Hg
* Reported Apr 17 8:00 AM — May 2 7:00 AM, Campo Grande, Weather by CustomWeather, © 2016

Note: Actual official high and low records may vary slightly from our data, if they occured in-between our weather recording intervals... More about our weather records

Advertising

Campo Grande Weather History for the Previous 24 Hours

Scroll right to see more
 ConditionsComfort  
Time TempWeatherWind HumidityBarometerVisibility
7:00 AM
Mon, May 2
64 °FSunny.16 mph56%30.09 "Hg10 mi
6:00 AM63 °FSunny.13 mph56%30.07 "Hg10 mi
5:00 AM64 °FSunny.13 mph56%30.04 "Hg10 mi
4:00 AM64 °FClear.12 mph56%30.04 "Hg10 mi
3:00 AM63 °FClear.8 mph59%30.04 "Hg10 mi
2:00 AM63 °FPassing clouds.7 mph56%30.04 "HgN/A
1:00 AM64 °FClear.10 mph56%30.04 "Hg10 mi
12:00 AM64 °FClear.12 mph52%30.04 "Hg10 mi
11:00 PM
Sun, May 1
64 °FPassing clouds.8 mph52%30.07 "HgN/A
10:00 PM64 °FClear.8 mph52%30.07 "Hg10 mi
9:00 PM64 °FClear.7 mph52%30.07 "Hg10 mi
8:00 PM64 °FClear.7 mph52%30.07 "Hg10 mi
7:00 PM63 °FClear.7 mph59%30.07 "Hg10 mi
6:00 PM68 °FClear.6 mph46%30.07 "Hg10 mi
5:00 PM73 °FClear.5 mph36%30.04 "Hg10 mi
4:00 PM77 °FSunny.6 mph30%30.04 "Hg10 mi
3:00 PM77 °FSunny.3 mph28%30.04 "Hg10 mi
2:00 PM77 °FSunny.6 mph28%30.04 "Hg10 mi
1:00 PM75 °FPassing clouds.7 mph29%30.07 "HgN/A
12:00 PM73 °FPassing clouds.5 mph33%30.09 "HgN/A
11:00 AM72 °FPassing clouds.7 mph38%30.12 "HgN/A
10:00 AM66 °FPassing clouds.10 mph40%30.15 "HgN/A
9:00 AM63 °FSunny.9 mph45%30.15 "Hg10 mi
8:00 AM59 °FPassing clouds.8 mph51%30.12 "HgN/A
7:00 AM52 °FSunny.8 mph67%30.12 "Hg10 mi
Weather by CustomWeather, © 2016

See weather overviewHow to use our weather pages